Regional Weather Roundup
Issued by NWS

Home | Current Version | Previous Version | Graphics & Text | Print | Product List | Glossary Off
Versions: 1 2 3 4 5 6 7 8 9 10 11 12 13 14 15 16 17 18 19 20 21 22 23 24 25 26 27 28 29 30 31 32 33 34 35 36 37 38 39 40 41 42 43 44 45 46 47 48 49 50

000
ASUS43 KTOP 012159
RWRKS

WEATHER ROUNDUP FOR KANSAS
NATIONAL WEATHER SERVICE GOODLAND KS
500 PM CDT MON SEP 01 2014

NOTE:  "FAIR" INDICATES FEW OR NO CLOUDS BELOW 12,000 FEET WITH NO
SIGNIFICANT WEATHER AND/OR OBSTRUCTIONS TO VISIBILITY.

KSZ001>006-013>018-027>032-041>047-012300-
NORTHWEST KANSAS

CITY           SKY/WX    TMP DP  RH WIND       PRES   REMARKS
GOODLAND       SUNNY     80  46  30 VRB6      29.96F
HAYS           MOSUNNY   81  61  50 NE5       29.90S
HILL CITY      SUNNY     81  54  39 E8        29.92F
RUSSELL        MOSUNNY   80  63  55 E9        29.89S
$$

KSZ061>065-074>080-084>089-012300-
SOUTHWEST KANSAS

CITY           SKY/WX    TMP DP  RH WIND       PRES   REMARKS
DODGE CITY     SUNNY     81  63  54 NE15      29.90F
ELKHART          N/A     86  57  37 NE7         N/A
GARDEN CITY    SUNNY     83  56  39 NE14G22   29.90F
GREAT BEND     CLOUDY    75  64  69 E9        29.89F
LIBERAL        MOSUNNY   84  63  48 NE8G16    29.91S
$$

KSZ066>073-081>083-090>101-012300-
SOUTHEAST KANSAS

CITY           SKY/WX    TMP DP  RH WIND       PRES   REMARKS
CHANUTE        CLOUDY    82  71  69 S7        29.86S
COFFEYVILLE    CLOUDY    85  73  67 NE6       29.82F
HUTCHINSON     PTSUNNY   80  67  64 NE12G17   29.86S
MEDICINE LODGE   N/A     88  70  55 NE15      29.79R
NEWTON         PTSUNNY   79  66  65 NE12      29.90S
PARSONS        CLOUDY    84  71  65 CALM      29.85F
WICHITA INTL   PTSUNNY   86  70  58 NE13      29.81F
WICHITA JABRA  CLOUDY    84  71  65 E6        29.82F
WINFIELD       MOSUNNY   89  72  56 SE10      29.80F HX  96
$$

KSZ007>012-019>026-033>040-048>060-102>105-012300-
NORTHEAST KANSAS

CITY           SKY/WX    TMP DP  RH WIND       PRES   REMARKS
CONCORDIA      SUNNY     80  60  50 CALM      29.89S
EMPORIA        CLOUDY    76  68  76 NE6       29.88F
LAWRENCE       CLOUDY   N/A N/A N/A CALM      29.88S
MANHATTAN      CLOUDY    79  66  64 CALM      29.87F
OLATHE IND     CLOUDY    77  67  71 SW6       29.89F
OLATHE EXE     CLOUDY    76  68  76 S3        29.88F
SALINA         CLOUDY    78  66  66 NE5       29.89S
TOPEKA BILLARD CLOUDY    79  69  71 NW3       29.88S
TOPEKA FORBES  CLOUDY    79  65  62 CALM      29.88S
$$



USA.gov is the U.S. government's official web portal to all federal, state and local government web resources and services.